Find Starlink 33715

NORAD ID: 63441 Int'l Des: 2025-069 Owner: SPXS Country: US Constellation: starlink operational
LEOCIRCULAR

实时位置

正在加载3D地球...

关于 Starlink 33715

正在加载描述...

即将过境

Passes for default location (London). Set your location on the main map for personalized predictions.

高度历史

Loading altitude history...

两行轨道根数

1 63441U 25069J 26124.71544032 .00022775 00000-0 53117-3 0 9994
2 63441 53.1613 241.4463 0001194 92.0300 268.0843 15.42165141 61998
Epoch: May 4, 2026 • Age: 9 hours

当前状态

高度 458.8 km
速度 7.64 km/s
星下点 -52.89°S, 114.57°W
发射日期 Apr 4, 2025
运行时间 1 years
类型 internet

技术详情

分类 Payload
质量 575.00 kg
干质量 530.00 kg
总质量 575.00 kg
长度 0.30 m
直径 4.10 m
跨度 29.00 m
形状 Box + pan
制造商 SPXS
平台类型 Starlink V2MO
阶段状态 In Orbit
所有者/国家 SPXS/US

Most Searched